Weather History for Fond du Lac, WI

Change the Weather History Date:

Sunday, February 3, 2013

  Actual Average Record
Temperature  
Mean Temperature 8 °F -  
Max Temperature 16 °F 25 °F 51 °F (1992)
Min Temperature 1 °F 9 °F -18 °F (2014)
Degree Days  
Heating Degree Days 56    
Moisture  
Dew Point 1 °F    
Average Humidity 71    
Maximum Humidity 80    
Minimum Humidity 57    
Precipitation  
Precipitation 0.00 in - - ()
Sea Level Pressure  
Sea Level Pressure 30.00 in    
Wind  
Wind Speed 7 mph (West)    
Max Wind Speed 18 mph    
Max Gust Speed -    
Visibility 9 miles    
Events Snow    
Averages and records for this station are not official NWS values.
T = Trace of Precipitation, MM = Missing Value Source: NWS Daily Summary

Daily Weather History Graph

Daily Weather History Graph

Search for Another Location

Airport:

Trip Planner

Search our weather history database for the weather conditions in past years. The results will help you decide how hot, cold, wet, or windy it might be!

Date:

Astronomy

Feb. 03, 2013 Rise Set
Actual Time 7:08 AM CST 5:08 PM CST
Civil Twilight 6:37 AM CST 5:38 PM CST
Nautical Twilight 6:03 AM CST 6:12 PM CST
Astronomical Twilight 5:29 AM CST 6:46 PM CST
Moon 12:36 AM CST (2/3) 10:43 AM CST (2/3)
Length of Visible Light 11h 00m
Length of Day
9h 59m
Waning Gibbous, 48% of the Moon is Illuminated
Feb 3
Waning Gibbous
Feb 10
New
Feb 17
First Quarter
Feb 25
Full
Mar 4
Last Quarter

Hourly Weather History & Observations

Time (CST) Temp. Windchill Dew Point Humidity Pressure Visibility Wind Dir Wind Speed Gust Speed Precip Events Conditions
12:53 AM 1.9 °F -7.6 °F -5.1 °F 72% 30.03 in 10.0 mi SW 4.6 mph - N/A   Scattered Clouds
1:53 AM 1.9 °F -7.6 °F -4.0 °F 76% 30.01 in 10.0 mi SW 4.6 mph - N/A   Mostly Cloudy
2:53 AM 1.9 °F -7.6 °F -4.0 °F 76% 29.99 in 10.0 mi SW 4.6 mph - N/A   Overcast
3:53 AM 3.0 °F -6.4 °F -2.9 °F 76% 29.97 in 8.0 mi SW 4.6 mph - 0.00 in Snow Light Snow
4:53 AM 3.9 °F -6.9 °F -0.9 °F 80% 29.97 in 10.0 mi SW 5.8 mph - 0.00 in   Overcast
5:53 AM 5.0 °F -4.1 °F -0.0 °F 80% 29.97 in 9.0 mi SW 4.6 mph - 0.00 in Snow Light Snow
6:53 AM 7.0 °F 0.1 °F 1.9 °F 80% 29.98 in 10.0 mi West 3.5 mph - 0.00 in   Overcast
7:53 AM 10.0 °F -0.9 °F 3.9 °F 76% 29.97 in 5.0 mi West 6.9 mph - 0.00 in Snow Light Snow
8:36 AM 10.4 °F -4.8 °F 3.2 °F 73% 29.92 in 2.5 mi WNW 12.7 mph - 0.00 in Snow Light Snow
8:45 AM 10.4 °F -5.4 °F 3.2 °F 73% 29.93 in 5.0 mi WNW 13.8 mph - 0.00 in   Haze
8:53 AM 10.0 °F -5.2 °F 3.9 °F 76% 29.99 in 6.0 mi WNW 12.7 mph - 0.00 in   Haze
9:53 AM 10.9 °F -3.4 °F 3.0 °F 70% 29.99 in 10.0 mi WNW 11.5 mph - N/A   Overcast
10:53 AM 12.0 °F -4.0 °F 3.0 °F 67% 30.01 in 10.0 mi NW 15.0 mph - 0.00 in   Scattered Clouds
11:53 AM 12.9 °F -4.4 °F 1.9 °F 62% 30.00 in 10.0 mi WNW 18.4 mph - 0.00 in   Partly Cloudy
12:53 PM 14.0 °F -2.5 °F 3.0 °F 62% 30.00 in 10.0 mi WNW 17.3 mph - N/A   Clear
1:53 PM 15.1 °F -0.1 °F 3.0 °F 59% 30.00 in 10.0 mi WNW 15.0 mph - N/A   Clear
2:53 PM 16.0 °F 1.7 °F 3.0 °F 57% 30.01 in 10.0 mi WNW 13.8 mph - N/A   Clear
3:53 PM 16.0 °F 6.3 °F 3.0 °F 57% 30.01 in 10.0 mi WNW 6.9 mph - N/A   Partly Cloudy
4:53 PM 14.0 °F - 1.9 °F 59% 30.01 in 10.0 mi Calm Calm - N/A   Clear
5:53 PM 10.9 °F 2.9 °F 1.9 °F 67% 30.02 in 10.0 mi WSW 4.6 mph - N/A   Clear
6:53 PM 10.0 °F 3.6 °F 1.9 °F 70% 30.03 in 10.0 mi WSW 3.5 mph - N/A   Clear
7:53 PM 5.0 °F - -0.0 °F 80% 30.04 in 10.0 mi Calm Calm - N/A   Mostly Cloudy
8:53 PM 8.1 °F - 1.9 °F 76% 30.05 in 10.0 mi Calm Calm - N/A   Overcast
9:53 PM 10.9 °F 4.7 °F 1.9 °F 67% 30.06 in 10.0 mi West 3.5 mph - N/A   Scattered Clouds
10:53 PM 10.9 °F - 5.0 °F 77% 30.05 in 10.0 mi Calm Calm - N/A   Overcast
11:53 PM 12.0 °F 5.9 °F 3.0 °F 67% 30.05 in 10.0 mi SW 3.5 mph - N/A   Overcast